Location: Meanaryar
(48.4161°N, 4.7315°W)
Time: 09:10:26
(UTC+00:00)

Cosmos 1092 Rocket - Pass Details

Date: 20 January 2021
Orbit: 954 x 995 km, 83.0° (Epoch: 02 March)

Event Time Altitude Azimuth Distance (km) Brightness Sun altitude
Rises 20:23:00 0° 215° (SW) 3,656 7.3 -33.4°
Reaches altitude 10° 20:25:44 10° 224° (SW) 2,707 6.7 -33.8°
Maximum altitude 20:31:20 35° 289° (WNW) 1,505 5.4 -34.7°
Drops below altitude 10° 20:36:57 10° 355° (N) 2,702 6.4 -35.7°
Sets 20:39:42 0° 4° (N) 3,649 7.1 -36.1°
